Theta_e
316 316 314 314 315 316 316 314 314 314 314 315 317 318 322 321 317 310 302 305 311 318 316 309 306 304 304 300 300 300 288 285 287 289 291 295 294 297 299 297 298 300 300 304 304
315 315 315 314 314 315 315 315 314 314 313 313 315 317 322 318 308 303 310 318 322 318 307 304 300 301 297 297 297 293 285 286 292 294 292 294 294 295 295 294 295 297 300 302 304
313 313 314 313 313 314 314 313 315 313 314 313 314 316 319 312 300 298 316 321 321 315 310 306 305 301 295 296 295 292 287 291 293 295 294 293 294 296 294 291 294 295 298 300 301
312 312 312 312 312 313 313 313 314 314 312 312 314 316 317 307 293 306 320 323 319 312 305 302 299 294 292 290 293 290 293 293 294 293 292 291 294 292 293 294 298 299 299 298 298
311 311 311 311 311 312 311 311 313 313 312 310 314 317 308 299 298 308 322 321 309 304 301 298 295 293 289 289 291 289 290 292 293 293 292 293 291 291 291 295 297 297 297 297 298
311 310 310 310 311 310 309 310 312 313 312 310 311 315 305 297 309 312 309 306 304 301 298 297 295 295 291 289 288 290 290 290 291 291 291 289 289 290 291 294 294 295 295 296 296
311 310 310 310 310 309 310 309 310 312 312 312 312 311 303 298 312 310 308 304 304 302 298 299 298 294 293 288 292 290 286 287 288 289 289 290 286 286 292 293 292 293 295 296 298
311 309 309 309 308 308 309 309 310 312 311 312 312 307 298 310 312 307 305 302 303 303 300 300 299 295 292 293 287 285 284 281 286 289 290 290 283 288 292 293 293 294 295 296 298
310 308 308 308 308 309 307 307 309 312 314 313 307 303 296 312 304 303 304 299 301 302 302 302 298 291 290 284 279 281 277 280 283 289 289 288 285 290 294 293 292 293 294 296 298
309 309 309 309 309 306 305 308 309 311 310 309 306 297 300 299 300 300 302 302 298 298 297 294 290 286 285 281 275 277 277 280 280 286 287 286 285 290 293 293 292 293 294 295 297
310 309 308 309 306 304 300 298 294 296 299 295 296 295 299 302 304 300 303 299 298 294 287 291 284 280 282 283 280 279 279 279 282 287 285 285 286 290 293 293 292 294 298 300 302
309 308 308 309 306 304 299 291 291 295 288 298 299 299 301 301 293 298 302 293 291 286 289 284 281 285 286 286 284 283 280 280 285 288 288 287 287 290 292 293 297 297 299 302 305
309 308 308 308 306 300 296 296 303 303 287 289 296 296 297 298 293 294 298 294 288 285 285 281 285 288 287 284 283 282 281 281 282 287 290 287 284 285 291 294 295 298 299 302 304
308 307 307 308 300 300 297 303 305 303 283 283 290 293 297 298 291 300 300 294 290 284 285 285 288 286 286 283 285 281 287 287 286 285 281 289 280 284 287 290 292 295 297 299 302
308 307 307 305 298 296 300 305 304 300 272 287 290 300 299 293 293 295 299 294 287 287 285 281 285 286 285 285 289 284 290 289 288 286 285 285 281 283 287 287 290 295 297 297 300
308 307 305 300 299 300 304 303 299 280 272 283 291 292 292 293 293 294 294 296 294 288 287 286 291 289 288 290 291 292 289 289 289 287 280 280 281 281 285 288 291 295 296 297 298
307 307 302 301 294 301 299 292 280 274 286 283 287 290 289 287 288 288 287 285 283 276 274 284 287 292 293 288 293 291 287 276 273 277 275 284 281 283 289 291 293 294 294 296 297
305 303 301 301 300 298 292 284 275 283 282 289 289 288 285 286 285 286 285 282 286 286 283 277 276 288 292 290 290 289 288 280 272 274 278 285 280 285 292 294 295 294 295 296 296
302 293 293 296 299 295 287 279 277 280 286 286 286 282 284 286 285 283 283 285 289 288 282 281 278 291 293 295 294 290 285 291 284 284 281 283 287 291 292 291 290 290 292 293 294
291 290 291 296 296 291 285 284 284 288 289 288 282 283 279 283 282 283 283 287 291 292 292 289 283 289 292 294 295 292 293 285 285 276 276 280 282 284 287 287 288 288 289 292 293
290 288 295 297 296 290 282 283 288 293 292 287 283 282 282 282 283 282 283 287 292 293 294 291 288 284 290 289 287 289 286 287 287 285 279 277 281 291 287 289 288 289 292 292 293
288 285 297 296 286 284 285 289 293 290 292 290 288 287 284 284 283 285 284 287 293 294 288 290 287 281 284 289 290 289 286 285 280 278 280 280 282 292 292 292 291 292 293 294 295
286 285 295 295 281 277 285 288 290 289 288 289 288 290 288 286 283 286 288 293 294 292 288 289 283 276 279 283 287 285 286 285 284 281 278 277 280 292 293 292 292 292 293 294 294
287 283 289 288 285 283 284 285 286 291 290 290 288 289 287 285 287 284 286 291 293 292 297 292 283 280 275 280 284 283 283 284 282 277 279 279 282 287 290 291 292 291 292 292 291
287 283 284 281 285 284 284 286 285 286 289 290 287 287 285 282 283 282 285 286 290 292 290 287 280 279 282 283 284 284 283 283 280 281 278 281 282 287 288 290 290 290 288 288 289
288 286 284 283 283 283 287 285 286 287 287 287 286 287 286 283 283 281 284 283 283 286 285 286 280 282 278 283 283 282 283 282 284 284 283 283 283 288 289 289 288 289 288 288 288
288 289 288 286 283 282 283 285 286 287 288 289 287 285 285 286 288 288 288 287 286 283 284 283 281 277 275 279 280 277 280 282 284 285 284 282 285 288 287 287 288 288 287 288 289
Wind_Speed
13 14 12 12 12 11 11 8 8 7 9 10 7 11 17 12 9 2 4 5 5 8 5 3 5 4 4 4 4 2 4 2 3 5 1 2 5 2 2 4 3 4 3 7 11
15 14 14 10 12 12 10 8 5 8 8 8 8 6 6 11 4 4 4 9 11 10 5 4 4 4 4 3 3 4 2 5 2 2 2 5 1 4 4 4 5 8 9 8 12
14 13 13 12 12 12 11 5 10 7 8 6 9 6 13 7 2 1 8 11 11 8 5 3 5 4 5 3 2 2 4 4 1 2 4 4 7 3 4 5 7 5 6 10 10
12 12 12 11 12 12 8 7 10 10 4 6 9 2 11 5 3 3 10 12 13 7 4 5 4 4 4 3 1 3 2 2 1 2 2 4 4 7 10 10 11 15 11 6 14
13 12 12 11 9 8 4 1 10 10 4 3 6 5 4 4 2 5 9 17 5 5 4 4 4 4 5 4 3 2 1 2 2 8 6 6 11 10 10 15 15 15 13 12 11
12 9 9 8 8 5 1 5 9 13 6 2 5 7 5 6 3 3 9 8 6 5 3 4 4 4 6 3 3 1 2 5 6 5 5 6 5 1 9 6 9 12 14 12 11
13 10 8 8 7 3 3 2 5 14 9 3 5 6 5 6 1 5 8 3 2 5 5 3 5 6 3 4 1 1 4 6 2 2 4 4 4 8 10 8 9 10 11 13 14
10 5 6 6 3 2 4 6 8 14 11 13 3 0 6 2 3 11 10 5 6 7 8 5 7 7 5 3 5 4 4 5 2 5 2 5 7 5 9 6 12 14 16 14 16
5 3 3 3 6 4 4 5 11 17 10 12 4 4 5 2 8 5 4 7 6 6 7 6 6 4 4 4 4 6 1 2 7 2 2 1 12 10 11 14 18 16 14 15 15
8 7 8 10 9 3 4 11 11 12 15 11 3 6 3 6 3 4 4 7 7 5 6 7 5 4 3 3 3 1 2 3 5 2 2 13 20 17 14 12 16 14 14 14 15
11 10 11 12 10 8 2 4 6 6 11 5 11 5 11 8 6 6 4 7 5 6 4 3 4 2 2 3 5 5 1 5 6 9 6 9 15 18 16 8 7 7 8 10 11
13 13 11 12 10 8 4 7 4 3 12 13 14 12 11 6 11 5 3 5 4 4 3 4 3 1 4 4 3 2 4 6 8 5 4 9 19 16 6 2 2 8 9 10 10
15 12 10 12 10 7 5 9 2 6 7 6 8 7 4 6 7 4 4 3 4 3 2 4 5 5 3 2 2 3 4 2 6 8 8 8 8 3 2 2 6 7 8 9 9
14 9 5 5 4 1 6 3 2 1 6 9 6 3 2 5 7 3 3 4 2 4 5 1 1 2 2 3 5 2 5 9 9 7 4 3 7 4 2 5 4 6 8 11 11
13 12 15 10 2 4 1 2 3 1 8 5 4 4 1 3 9 5 3 4 3 4 4 5 5 3 3 4 6 6 5 6 9 9 7 5 5 5 2 3 9 6 8 8 8
15 12 6 6 4 3 5 2 0 5 9 3 3 6 4 5 4 3 3 5 1 2 0 3 2 3 4 3 7 6 5 9 11 5 5 3 3 3 2 5 8 5 6 7 8
11 10 7 2 0 3 3 3 6 9 2 5 5 2 5 3 4 3 2 1 2 4 4 3 2 3 3 3 4 5 3 4 3 2 5 5 4 6 3 6 8 3 6 7 8
4 6 5 2 2 2 3 4 11 5 5 2 2 4 5 3 2 2 2 1 2 3 3 4 6 5 5 4 1 4 2 1 4 3 4 6 4 2 2 5 5 6 5 6 7
3 2 2 3 4 3 4 10 4 2 3 6 3 4 2 2 6 1 1 1 2 5 4 2 5 2 5 3 2 3 3 2 3 3 3 2 2 3 1 2 7 7 7 7 8
2 3 3 5 2 3 5 10 5 1 2 2 3 2 3 4 5 4 3 1 0 4 3 2 4 3 2 3 4 2 2 1 1 4 5 2 3 4 7 5 3 4 5 8 8
4 5 4 8 3 7 9 6 4 3 1 2 2 4 3 3 3 2 2 2 2 3 4 1 1 6 1 5 5 3 2 2 2 2 3 5 1 5 5 4 4 1 5 6 7
3 6 5 4 8 3 5 3 4 4 2 2 3 4 3 2 3 1 2 4 5 5 3 2 1 5 6 2 1 2 3 3 2 2 2 1 3 4 3 4 3 5 7 4 2
4 2 4 6 6 4 3 2 2 5 4 5 4 3 1 3 2 0 1 1 6 5 4 4 2 4 6 4 3 2 1 2 1 2 4 2 3 3 3 5 5 6 6 4 3
4 6 7 6 2 4 5 6 4 4 4 3 3 3 2 4 2 2 3 1 6 4 4 4 2 5 6 6 2 4 2 0 3 2 2 5 3 4 5 6 7 6 5 4 4
5 0 2 4 6 5 2 4 4 6 5 6 4 5 0 3 2 2 2 4 2 1 3 4 3 3 6 8 3 5 6 3 6 6 4 3 6 6 8 9 8 7 5 5 5
4 4 2 1 3 3 7 6 6 4 4 5 5 3 3 3 3 2 1 2 2 3 2 0 3 0 6 3 6 6 7 7 7 3 5 4 6 6 4 3 4 7 6 6 6
1 2 3 4 3 3 2 3 3 1 1 1 1 1 2 2 4 6 5 2 3 1 1 1 1 3 6 3 5 7 8 9 5 5 5 6 7 4 5 7 8 8 8 8 7
Wind_Direction
296 289 290 297 306 306 270 259 285 291 307 300 323 331 337 155 125 86 227 209 171 145 94 102 42 44 51 69 61 110 82 179 202 168 270 15 10 322 321 279 324 294 273 300 322
298 291 295 300 301 302 274 265 272 290 303 307 308 326 339 130 106 209 238 167 157 133 96 112 86 64 50 65 39 85 127 197 194 197 311 315 301 331 316 282 269 285 290 309 328
297 294 285 293 299 297 288 254 268 274 304 312 318 332 138 109 215 253 185 164 152 120 106 104 103 76 69 42 31 128 160 182 150 95 8 288 300 244 254 264 242 263 258 307 315
305 299 291 297 298 304 284 208 246 253 259 310 330 99 143 130 163 342 171 165 117 111 81 94 60 68 85 98 27 103 128 129 138 344 307 264 286 273 241 259 263 264 277 283 294
298 294 291 298 303 311 271 4 291 272 268 285 330 259 139 122 105 315 167 113 76 80 90 111 75 110 110 107 84 84 342 318 270 278 243 237 250 257 266 255 262 275 269 259 263
286 289 294 301 293 288 244 78 315 287 277 230 277 111 94 159 324 104 99 76 87 79 83 66 129 116 101 85 82 216 283 281 270 280 268 275 271 212 253 251 267 278 280 276 256
272 272 270 269 280 300 307 176 226 277 309 269 269 247 127 109 103 54 83 80 89 126 91 53 109 75 107 109 20 20 348 323 4 350 313 322 279 230 256 292 278 284 288 282 268
262 260 278 286 282 343 22 345 298 270 295 262 249 66 94 250 167 99 97 66 58 58 91 82 84 93 68 132 32 51 47 355 12 339 360 57 277 277 277 297 295 291 288 290 284
262 124 20 353 94 65 20 322 341 281 256 182 121 104 157 100 120 107 100 110 83 61 60 67 66 74 35 71 27 19 56 344 316 291 301 44 290 255 281 287 290 288 289 294 296
167 93 97 102 97 66 85 46 3 53 85 96 90 104 174 104 95 81 77 91 95 77 48 44 50 67 50 70 206 136 21 303 261 265 315 293 271 285 297 296 284 290 300 300 298
113 103 97 103 81 54 58 47 1 60 23 44 107 69 102 125 35 62 74 71 64 48 83 24 79 101 161 117 121 127 116 303 244 264 284 268 278 298 313 334 335 329 332 331 320
84 83 87 106 76 69 78 92 163 135 58 34 92 83 97 110 115 44 64 87 70 93 93 45 84 167 106 125 130 133 302 286 287 248 277 298 294 300 293 288 345 358 0 345 357
67 76 87 125 93 54 83 83 172 200 86 31 35 59 41 69 86 50 64 91 98 91 93 104 149 110 126 151 182 218 209 229 251 309 273 298 279 271 236 259 31 12 355 349 16
50 58 71 153 51 307 47 28 74 291 83 15 41 71 283 189 72 35 37 107 83 138 147 133 132 149 170 218 165 276 204 230 263 307 317 19 287 278 330 290 2 359 7 353 6
36 29 48 46 93 45 166 8 313 300 76 8 25 203 84 54 132 19 5 42 118 144 106 245 159 145 221 219 180 233 231 277 286 267 292 204 259 256 317 331 346 8 9 356 356
42 41 52 27 46 350 304 327 129 52 60 43 342 121 103 46 46 62 32 45 113 140 64 230 179 187 216 218 216 251 308 284 265 233 237 205 204 275 335 334 329 350 13 2 7
42 57 73 107 319 331 330 14 56 59 276 350 64 90 72 76 63 84 122 126 123 76 4 321 215 209 176 267 204 212 266 307 349 228 235 171 194 279 310 328 307 26 26 10 26
296 16 347 132 242 224 104 53 65 49 63 193 91 66 70 136 46 150 123 109 118 83 85 60 347 189 179 228 281 182 228 238 269 296 295 156 242 274 332 36 46 44 18 21 37
44 17 319 294 331 114 74 55 83 157 153 153 162 121 131 108 128 108 86 51 137 166 84 4 290 156 201 148 215 113 231 231 279 234 270 219 270 179 355 348 11 12 0 29 41
27 5 288 323 89 82 82 87 93 194 147 178 117 48 86 17 61 39 40 239 308 160 200 82 293 223 110 99 245 220 275 235 212 307 291 264 289 309 332 9 21 23 355 51 58
43 30 270 332 72 38 63 76 101 165 64 72 111 86 91 110 89 136 160 254 250 127 172 85 62 295 101 208 177 171 246 228 275 241 303 314 350 357 6 354 63 71 67 81 80
96 51 302 7 61 32 54 13 342 3 345 64 93 102 101 136 117 115 167 211 184 153 156 241 176 265 226 299 4 148 149 161 154 227 233 264 287 348 96 82 106 77 100 108 111
68 293 328 75 79 6 343 75 101 32 30 24 51 56 110 141 90 165 203 195 157 148 175 182 237 325 350 4 22 61 99 223 142 63 229 172 283 136 125 111 143 159 178 196 257
62 26 342 45 58 74 24 10 29 14 53 57 37 62 100 54 30 40 2 73 174 194 216 152 211 184 193 220 184 287 264 211 159 168 189 225 238 196 167 172 196 214 230 239 257
31 129 189 345 356 32 62 7 7 9 351 29 57 36 302 78 11 23 318 335 175 168 137 159 253 189 257 246 218 234 248 223 191 233 190 255 207 223 202 194 202 203 209 218 237
106 128 38 41 305 1 14 358 13 341 16 354 76 340 35 118 169 265 68 188 213 315 152 106 258 283 284 227 212 263 239 218 234 213 242 210 260 211 187 161 196 217 210 219 224
146 45 96 328 2 74 343 333 343 275 63 119 322 352 1 286 230 236 222 243 232 210 239 137 75 44 270 0 299 290 224 185 185 194 173 196 229 167 200 210 214 215 212 220 222